EW4576 Weather Reports


time (UTC)temp
C
wind
direction
speed
KPH
gust
KPH
rain 1hr
cm
rain 24hr
cm
rain mn
cm
humidity
%
barometer
mb
20190821143054 21 127 0.0 8.0 0.00 0.46 0.00 53 1026.2
20190821142547 21 85 1.6 11.3 0.00 0.46 0.00 53 1026.2
20190821142053 21 118 1.6 11.3 0.00 0.48 0.00 52 1026.2
20190821141549 21 162 1.6 6.4 0.00 0.51 0.00 52 1026.2
20190821141049 21 98 1.6 6.4 0.00 0.51 0.00 52 1026.2
20190821140548 21 137 1.6 6.4 0.00 0.51 0.00 53 1026.3
20190821140050 21 124 0.0 4.8 0.00 0.53 0.00 54 1026.3
20190821135549 21 124 1.6 6.4 0.00 0.56 0.00 53 1026.3
20190821135048 21 108 1.6 6.4 0.00 0.58 0.00 54 1026.4
20190821134550 20 112 0.0 4.8 0.00 0.61 0.00 51 1026.4
20190821134047 20 143 0.0 4.8 0.00 0.61 0.00 51 1026.4
20190821133547 20 94 0.0 4.8 0.00 0.64 0.00 53 1026.5
20190821133051 20 94 0.0 4.8 0.00 0.66 0.00 55 1026.5
20190821132545 20 77 0.0 4.8 0.00 0.66 0.00 59 1026.6
20190821132045 20 59 0.0 4.8 0.00 0.66 0.00 55 1026.7
20190821131545 20 80 1.6 4.8 0.00 0.69 0.00 55 1026.7
20190821131046 20 359 1.6 6.4 0.00 0.71 0.00 57 1026.9
20190821130547 20 8 1.6 4.8 0.00 0.71 0.00 56 1026.9
20190821130046 20 112 1.6 11.3 0.00 0.71 0.00 55 1026.9
20190821125546 20 116 1.6 11.3 0.00 0.74 0.00 55 1026.9
20190821125045 20 98 0.0 3.2 0.00 0.74 0.00 58 1026.9
20190821124546 20 101 0.0 8.0 0.00 0.74 0.00 58 1027.0
20190821124045 20 101 0.0 8.0 0.00 0.74 0.00 62 1027.0
20190821123546 19 81 0.0 4.8 0.00 0.74 0.00 59 1027.0
20190821123043 19 81 0.0 4.8 0.00 0.76 0.00 63 1027.0
20190821122541 19 108 0.0 4.8 0.00 0.76 0.00 65 1027.1
20190821122041 18 32 0.0 4.8 0.00 0.76 0.00 64 1027.2
20190821121544 18 32 0.0 6.4 0.00 0.76 0.00 66 1027.2
20190821121041 18 32 0.0 3.2 0.00 0.76 0.00 68 1027.3
20190821120538 19 14 0.0 6.4 0.00 0.76 0.00 67 1027.4
20190821120038 19 10 0.0 6.4 0.00 0.76 0.00 71 1027.4
20190821115537 19 352 1.6 6.4 0.00 0.76 0.00 69 1027.4
20190821115034 18 352 1.6 6.4 0.00 0.76 0.00 76 1027.4
20190821114540 19 353 1.6 6.4 0.00 0.76 0.00 76 1027.4
20190821114036 19 323 1.6 6.4 0.00 0.76 0.00 74 1027.5
20190821113534 19 359 0.0 6.4 0.00 0.76 0.00 72 1027.5
20190821113036 18 19 0.0 3.2 0.00 0.76 0.00 75 1027.5
20190821112536 18 19 0.0 6.4 0.00 0.76 0.00 74 1027.5
20190821112039 18 96 0.0 6.4 0.00 0.76 0.00 77 1027.6
20190821111536 18 351 0.0 6.4 0.00 0.76 0.00 76 1027.6
20190821111035 18 105 0.0 6.4 0.00 0.76 0.00 76 1027.6
20190821110535 18 105 0.0 6.4 0.00 0.76 0.00 77 1027.7
20190821110035 18 10 0.0 6.4 0.00 0.76 0.00 77 1027.8
20190821105537 17 109 0.0 6.4 0.00 0.76 0.00 79 1027.7
20190821105037 17 102 0.0 4.8 0.00 0.76 0.00 79 1027.8
20190821104725 17 110 0.0 4.8 0.00 0.76 0.00 82 1027.9
20190821104644 17 95 0.0 4.8 0.00 0.76 0.00 82 1027.9
20190821103536 17 124 0.0 4.8 0.00 0.76 0.00 85 1028.0
20190821103036 17 31 0.0 4.8 0.00 0.76 0.00 82 1028.1
20190821102859 16 56 0.0 4.8 0.00 0.76 0.00 84 1028.1
20190821102355 16 56 0.0 4.8 0.00 0.76 0.00 85 1028.1
20190821101532 16 16 0.0 3.2 0.00 0.76 0.00 87 1028.2
20190821101033 16 16 0.0 3.2 0.00 0.76 0.00 86 1028.2
20190821100532 16 14 0.0 3.2 0.00 0.76 0.00 86 1028.2
20190821100031 16 16 0.0 3.2 0.00 0.76 0.00 87 1028.2
20190821095531 16 24 0.0 3.2 0.00 0.76 0.00 88 1028.3
20190821095033 15 29 0.0 3.2 0.00 0.76 0.00 87 1028.3
20190821094529 15 52 0.0 3.2 0.00 0.76 0.00 87 1028.3
20190821094030 15 129 0.0 3.2 0.00 0.76 0.00 89 1028.3
20190821093531 15 45 0.0 3.2 0.00 0.76 0.00 88 1028.4
20190821093029 15 45 0.0 3.2 0.00 0.76 0.00 89 1028.4
20190821092529 15 45 0.0 3.2 0.00 0.76 0.00 89 1028.4
20190821092029 15 58 0.0 1.6 0.00 0.76 0.00 90 1028.4
20190821091530 14 77 0.0 1.6 0.00 0.76 0.00 91 1028.5
20190821091032 14 96 0.0 4.8 0.00 0.76 0.00 92 1028.5
20190821090531 14 96 0.0 4.8 0.00 0.76 0.00 92 1028.5
20190821090031 14 96 0.0 3.2 0.00 0.76 0.00 93 1028.5
20190821085531 14 95 0.0 3.2 0.00 0.76 0.00 94 1028.6
20190821085031 13 95 0.0 3.2 0.00 0.76 0.00 94 1028.6
20190821084530 13 108 0.0 3.2 0.00 0.76 0.00 92 1028.6
20190821084029 13 108 0.0 3.2 0.00 0.76 0.00 94 1028.6
20190821083530 13 108 0.0 6.4 0.00 0.76 0.00 95 1028.7
20190821083029 13 108 0.0 6.4 0.00 0.76 0.00 96 1028.7
20190821082530 13 92 0.0 3.2 0.00 0.76 0.00 95 1028.7
20190821082030 13 84 0.0 1.6 0.00 0.76 0.00 97 1028.7
20190821081529 13 84 0.0 1.6 0.00 0.76 0.00 96 1028.7
20190821081030 13 84 0.0 0.0 0.00 0.76 0.00 97 1028.7
20190821080530 12 84 0.0 0.0 0.00 0.76 0.00 96 1028.6
20190821080028 12 84 0.0 4.8 0.00 0.76 0.00 97 1028.6
20190821075529 12 84 0.0 4.8 0.00 0.76 0.00 97 1028.7
20190821075029 12 84 0.0 6.4 0.00 0.76 0.00 97 1028.7
20190821074530 12 83 0.0 6.4 0.00 0.76 0.00 97 1028.7
20190821074029 12 108 0.0 4.8 0.00 0.76 0.00 97 1028.7
20190821073529 12 108 0.0 3.2 0.00 0.76 0.00 97 1028.7
20190821073029 12 108 0.0 4.8 0.00 0.76 0.00 97 1028.7
20190821072525 12 106 0.0 4.8 0.00 0.76 0.00 97 1028.7
20190821072028 12 106 0.0 4.8 0.00 0.76 0.00 97 1028.6
20190821071528 12 99 0.0 1.6 0.00 0.76 0.00 97 1028.6
20190821071026 12 99 0.0 3.2 0.00 0.76 0.00 97 1028.6
20190821070524 12 99 0.0 3.2 0.00 0.76 0.00 97 1028.7
20190821070026 12 99 0.0 3.2 0.00 0.76 0.00 97 1028.7
20190821065525 12 100 0.0 3.2 0.00 0.76 0.00 97 1028.7
20190821065024 12 100 0.0 4.8 0.00 0.76 0.00 97 1028.8
20190821064522 11 100 0.0 4.8 0.00 0.76 0.00 97 1028.8
20190821064022 11 100 0.0 4.8 0.00 0.76 0.00 97 1028.8
20190821063521 11 100 0.0 4.8 0.00 0.76 0.00 97 1028.8
20190821063021 11 83 0.0 1.6 0.00 0.76 0.00 97 1028.8
20190821062518 11 83 0.0 3.2 0.00 0.76 0.00 97 1028.8
20190821062018 11 83 0.0 3.2 0.00 0.76 0.00 97 1028.7
20190821061520 11 252 0.0 3.2 0.00 0.76 0.00 97 1028.7
20190821061019 11 269 0.0 3.2 0.00 0.76 0.00 97 1028.7
20190821060520 11 269 0.0 3.2 0.00 0.76 0.00 97 1028.6
20190821060019 11 269 0.0 3.2 0.00 0.76 0.00 97 1028.6
20190821055515 11 269 0.0 3.2 0.00 0.76 0.00 97 1028.6
20190821055014 11 269 0.0 3.2 0.00 0.76 0.00 97 1028.5
20190821054514 11 269 0.0 3.2 0.00 0.76 0.00 97 1028.5
20190821054014 11 269 0.0 3.2 0.00 0.76 0.00 97 1028.5
20190821053515 11 269 0.0 3.2 0.00 0.76 0.00 96 1028.5
20190821053012 11 269 0.0 3.2 0.00 0.76 0.00 96 1028.5
20190821052511 11 269 0.0 3.2 0.00 0.76 0.00 96 1028.5
20190821052009 11 269 0.0 3.2 0.00 0.76 0.00 96 1028.5
20190821051510 11 269 0.0 3.2 0.00 0.76 0.00 96 1028.5
20190821051008 11 269 0.0 3.2 0.00 0.76 0.00 96 1028.5
20190821050507 11 269 0.0 3.2 0.00 0.76 0.00 96 1028.5
20190821050008 11 269 0.0 3.2 0.00 0.76 0.00 96 1028.4
20190821045508 11 269 0.0 3.2 0.00 0.76 0.00 96 1028.4
20190821045007 11 270 0.0 1.6 0.00 0.76 0.00 96 1028.5
20190821044508 11 270 0.0 0.0 0.00 0.76 0.00 96 1028.5
20190821044007 11 270 0.0 0.0 0.00 0.76 0.00 96 1028.4
20190821043508 11 270 0.0 0.0 0.00 0.76 0.00 96 1028.4
20190821043007 11 270 0.0 0.0 0.00 0.76 0.00 96 1028.4
20190821042506 11 270 0.0 0.0 0.00 0.76 0.00 96 1028.4
20190821042008 11 270 0.0 0.0 0.00 0.76 0.00 96 1028.4
20190821041507 11 270 0.0 1.6 0.00 0.76 0.00 96 1028.3
20190821041007 11 270 0.0 1.6 0.00 0.76 0.00 96 1028.2
20190821040509 11 270 0.0 0.0 0.00 0.76 0.00 96 1028.2
20190821040004 11 270 0.0 0.0 0.00 0.76 0.00 96 1028.0
20190821035504 11 270 0.0 0.0 0.00 0.76 0.00 96 1028.0
20190821035005 11 270 0.0 0.0 0.00 0.76 0.00 96 1028.0
20190821034503 11 270 0.0 1.6 0.00 0.76 0.00 96 1028.0
20190821034003 11 270 0.0 1.6 0.00 0.76 0.00 96 1028.0
20190821033506 11 270 0.0 1.6 0.00 0.76 0.00 96 1028.1
20190821033007 11 270 0.0 1.6 0.00 0.76 0.00 96 1028.0
20190821032504 11 270 0.0 0.0 0.00 0.76 0.00 96 1028.0
20190821032003 11 270 0.0 0.0 0.00 0.76 0.00 96 1027.9
20190821031503 11 270 0.0 0.0 0.00 0.76 0.00 96 1027.9
20190821031001 11 269 0.0 0.0 0.00 0.76 0.00 96 1027.9
20190821030502 11 270 0.0 1.6 0.00 0.76 0.00 96 1027.8
20190821030004 11 270 0.0 0.0 0.00 0.76 0.00 96 1027.8
20190821025503 11 270 0.0 1.6 0.00 0.76 0.00 96 1027.8
20190821025002 11 270 0.0 1.6 0.00 0.76 0.00 96 1027.8
20190821024503 11 270 0.0 0.0 0.00 0.76 0.00 96 1027.8
20190821024003 11 270 0.0 0.0 0.00 0.76 0.00 95 1027.8
20190821023501 11 270 0.0 0.0 0.00 0.76 0.00 95 1027.8
20190821023003 11 270 0.0 0.0 0.00 0.76 0.00 95 1027.9
20190821022501 11 270 0.0 0.0 0.00 0.76 0.00 95 1027.9
20190821022002 11 270 0.0 0.0 0.00 0.76 0.00 96 1027.9
20190821021503 11 270 0.0 0.0 0.00 0.76 0.00 96 1027.9
20190821021001 11 270 0.0 0.0 0.00 0.76 0.00 95 1027.9
20190821020502 11 270 0.0 0.0 0.00 0.76 0.00 96 1027.9
20190821020003 11 270 0.0 0.0 0.00 0.76 0.00 95 1027.8
20190821015501 11 270 0.0 1.6 0.00 0.76 0.00 95 1027.9
20190821015003 11 270 0.0 0.0 0.00 0.76 0.00 95 1027.8
20190821014503 11 270 0.0 1.6 0.00 0.76 0.00 95 1027.7
20190821014001 11 270 0.0 3.2 0.00 0.76 0.00 95 1027.7
20190821013501 11 270 0.0 3.2 0.00 0.76 0.00 95 1027.7
20190821013004 11 270 0.0 1.6 0.00 0.76 0.00 95 1027.7
20190821012503 11 270 0.0 0.0 0.00 0.76 0.00 95 1027.6
20190821012002 11 270 0.0 0.0 0.00 0.76 0.00 94 1027.6
20190821011503 11 270 0.0 0.0 0.00 0.76 0.00 94 1027.6
20190821011001 11 270 0.0 0.0 0.00 0.76 0.00 94 1027.6
20190821010501 11 270 0.0 0.0 0.00 0.76 0.00 94 1027.6
20190821010003 11 270 0.0 0.0 0.00 0.76 0.00 94 1027.6
20190821005501 11 270 0.0 0.0 0.00 0.76 0.00 94 1027.6
20190821005002 11 269 0.0 0.0 0.00 0.76 0.00 94 1027.6
20190821004501 11 270 0.0 0.0 0.00 0.76 0.00 94 1027.5
20190821004002 11 270 0.0 0.0 0.00 0.76 0.00 94 1027.5
20190821003501 11 270 0.0 0.0 0.00 0.76 0.00 94 1027.5
20190821003002 11 270 0.0 0.0 0.00 0.76 0.00 94 1027.5
20190821002502 11 270 0.0 0.0 0.00 0.76 0.00 93 1027.5
20190821002002 11 270 0.0 0.0 0.00 0.76 0.00 93 1027.5
20190821001501 11 270 0.0 0.0 0.00 0.76 0.00 93 1027.4
20190821001000 11 270 0.0 0.0 0.00 0.76 0.00 93 1027.4
20190821000502 11 270 0.0 0.0 0.00 0.76 0.00 93 1027.5
20190821000002 12 270 0.0 0.0 0.00 0.76 0.00 94 1027.5
20190820235504 12 270 0.0 0.0 0.00 0.76 0.00 93 1027.4
20190820235002 12 270 0.0 0.0 0.00 0.76 0.00 93 1027.4
20190820234503 12 270 0.0 0.0 0.00 0.76 0.00 93 1027.4
20190820234003 12 270 0.0 0.0 0.00 0.76 0.00 94 1027.3
20190820233503 12 270 0.0 0.0 0.00 0.76 0.00 94 1027.3
20190820233001 12 270 0.0 0.0 0.00 0.76 0.00 94 1027.2
20190820232504 12 270 0.0 0.0 0.00 0.76 0.00 94 1027.3
20190820232003 12 270 0.0 0.0 0.00 0.76 0.00 94 1027.3
20190820231502 12 270 0.0 0.0 0.00 0.76 0.00 94 1027.4
20190820231002 12 270 0.0 0.0 0.00 0.76 0.00 94 1027.4
20190820230504 12 270 0.0 0.0 0.00 0.76 0.00 94 1027.4
20190820230005 12 270 0.0 0.0 0.00 0.76 0.00 94 1027.4
20190820225502 12 269 0.0 0.0 0.00 0.76 0.00 94 1027.4
20190820225005 12 270 0.0 0.0 0.00 0.76 0.00 94 1027.5
20190820224505 12 270 0.0 0.0 0.00 0.76 0.00 94 1027.4
20190820224002 13 270 0.0 0.0 0.00 0.76 0.00 94 1027.5
20190820223503 13 270 0.0 0.0 0.00 0.76 0.00 94 1027.4
20190820223000 13 270 0.0 0.0 0.00 0.76 0.00 94 1027.3
20190820222502 13 270 0.0 0.0 0.00 0.76 0.00 94 1027.3
20190820222002 13 269 0.0 0.0 0.00 0.76 0.00 94 1027.2
20190820221501 13 270 0.0 0.0 0.00 0.76 0.00 94 1027.3
20190820221006 13 270 0.0 0.0 0.00 0.76 0.00 94 1027.3
20190820220501 13 270 0.0 0.0 0.00 0.76 0.00 95 1027.3
20190820220002 13 270 0.0 0.0 0.00 0.76 0.00 95 1027.2
20190820215505 13 270 0.0 0.0 0.00 0.76 0.76 95 1027.2
20190820215002 13 270 0.0 0.0 0.00 0.76 0.76 95 1027.1
20190820214502 13 270 0.0 0.0 0.00 0.76 0.76 95 1027.1
20190820214001 13 270 0.0 0.0 0.00 0.76 0.76 95 1027.1
20190820213501 13 270 0.0 0.0 0.00 0.76 0.76 95 1027.0
20190820213001 13 270 0.0 0.0 0.00 0.76 0.76 95 1027.0
20190820212504 13 270 0.0 0.0 0.00 0.76 0.76 95 1027.0
20190820212002 13 270 0.0 0.0 0.00 0.76 0.76 95 1026.9
20190820211501 13 270 0.0 0.0 0.00 0.76 0.76 95 1026.9
20190820211000 13 270 0.0 0.0 0.00 0.76 0.76 95 1026.7
20190820210502 13 270 0.0 0.0 0.00 0.76 0.76 95 1026.7
20190820210000 13 270 0.0 0.0 0.00 0.76 0.76 95 1027.0
20190820205457 13 270 0.0 0.0 0.00 0.76 0.76 95 1026.9
20190820204957 13 270 0.0 0.0 0.00 0.76 0.76 95 1026.6
20190820204459 13 270 0.0 0.0 0.00 0.76 0.76 95 1026.6
20190820203957 13 270 0.0 0.0 0.00 0.76 0.76 95 1026.9
20190820203457 13 270 0.0 0.0 0.00 0.76 0.76 95 1026.9
20190820202958 13 270 0.0 0.0 0.00 0.76 0.76 95 1026.9
20190820202456 13 270 0.0 0.0 0.00 0.76 0.76 95 1026.9
20190820201957 13 270 0.0 0.0 0.00 0.76 0.76 95 1026.9
20190820201452 13 270 0.0 0.0 0.00 0.76 0.76 95 1026.9
20190820200952 13 270 0.0 0.0 0.00 0.76 0.76 95 1027.0
20190820200453 13 270 0.0 0.0 0.00 0.76 0.76 95 1027.0
20190820195952 13 270 0.0 0.0 0.00 0.76 0.76 94 1027.0
20190820195452 13 270 0.0 0.0 0.00 0.76 0.76 94 1026.7
20190820194951 13 270 0.0 0.0 0.00 0.76 0.76 94 1026.7
20190820194451 13 270 0.0 0.0 0.00 0.76 0.76 94 1026.6
20190820193953 13 270 0.0 0.0 0.00 0.76 0.76 94 1026.6
20190820193450 13 270 0.0 0.0 0.00 0.76 0.76 94 1026.6
20190820192950 13 270 0.0 0.0 0.00 0.76 0.76 94 1026.5
20190820192450 13 270 0.0 0.0 0.00 0.76 0.76 94 1026.5
20190820191950 14 270 0.0 0.0 0.00 0.76 0.76 94 1026.5
20190820191454 14 270 0.0 0.0 0.00 0.76 0.76 95 1026.5
20190820190951 14 270 0.0 0.0 0.00 0.76 0.76 95 1026.4
20190820190449 14 270 0.0 0.0 0.00 0.76 0.76 95 1026.4
20190820185952 14 270 0.0 0.0 0.00 0.76 0.76 95 1026.2
20190820185450 14 270 0.0 1.6 0.00 0.76 0.76 95 1026.3
20190820184949 14 270 0.0 0.0 0.00 0.76 0.76 95 1026.2
20190820184448 14 270 0.0 1.6 0.03 0.76 0.76 95 1026.2
20190820183952 14 270 0.0 1.6 0.03 0.76 0.76 95 1026.0
20190820183451 14 270 0.0 1.6 0.03 0.76 0.76 95 1026.0
20190820182948 14 270 0.0 1.6 0.03 0.76 0.76 94 1026.0
20190820182448 14 270 0.0 1.6 0.03 0.76 0.76 95 1025.9
20190820181948 14 270 0.0 1.6 0.03 0.76 0.76 95 1025.7
20190820181441 14 270 0.0 0.0 0.03 0.76 0.76 95 1025.8
20190820180941 14 270 0.0 0.0 0.03 0.76 0.76 95 1025.8
20190820180441 14 270 0.0 0.0 0.03 0.76 0.76 95 1025.8
20190820175942 14 270 0.0 0.0 0.03 0.76 0.76 94 1025.6
20190820175442 14 270 0.0 0.0 0.03 0.76 0.76 94 1025.5
20190820174938 14 270 0.0 0.0 0.05 0.76 0.76 94 1025.5
20190820174437 14 270 0.0 1.6 0.03 0.74 0.74 94 1025.3
20190820173936 14 270 0.0 1.6 0.03 0.74 0.74 94 1025.3
20190820173438 14 270 0.0 3.2 0.05 0.74 0.74 94 1025.4
20190820172936 14 270 0.0 3.2 0.05 0.74 0.74 94 1025.3
20190820172437 14 270 0.0 1.6 0.05 0.74 0.74 94 1025.2
20190820171937 14 270 0.0 3.2 0.08 0.74 0.74 94 1025.2
20190820171436 14 270 0.0 3.2 0.10 0.74 0.74 94 1025.1
20190820170936 14 270 0.0 4.8 0.13 0.74 0.74 94 1025.0
20190820170436 14 274 0.0 4.8 0.13 0.74 0.74 94 1025.1
20190820165935 14 278 0.0 3.2 0.15 0.74 0.74 94 1025.0
20190820165437 14 262 0.0 3.2 0.18 0.74 0.74 94 1024.9
20190820164937 14 260 0.0 3.2 0.18 0.71 0.71 94 1024.8
20190820164434 14 260 0.0 3.2 0.18 0.71 0.71 94 1024.8
20190820163936 14 260 0.0 6.4 0.20 0.71 0.71 94 1024.7
20190820163436 14 260 0.0 3.2 0.20 0.71 0.71 94 1024.7
20190820162934 14 283 0.0 6.4 0.23 0.71 0.71 93 1024.7
20190820162435 14 252 0.0 3.2 0.23 0.69 0.69 93 1024.7
20190820161931 14 286 0.0 3.2 0.20 0.66 0.66 93 1024.7
20190820161434 14 284 0.0 3.2 0.20 0.64 0.64 93 1024.6
20190820160933 14 284 0.0 3.2 0.20 0.61 0.61 92 1024.7
20190820160434 14 284 0.0 0.0 0.20 0.61 0.61 92 1024.7
20190820155933 14 284 0.0 0.0 0.18 0.58 0.58 91 1024.7
20190820155436 14 284 0.0 0.0 0.18 0.56 0.56 91 1024.8
20190820154934 14 285 0.0 1.6 0.18 0.53 0.53 91 1024.8
20190820154436 14 284 0.0 0.0 0.20 0.53 0.53 91 1024.8
20190820153933 14 284 0.0 3.2 0.18 0.51 0.51 91 1024.8
20190820153431 14 284 0.0 3.2 0.20 0.51 0.51 91 1024.7
20190820152931 14 285 0.0 3.2 0.18 0.48 0.48 91 1024.7
20190820152432 15 285 0.0 3.2 0.18 0.46 0.46 92 1024.6
20190820151929 15 285 0.0 1.6 0.18 0.46 0.46 93 1024.6
20190820151429 15 285 0.0 1.6 0.18 0.43 0.43 93 1024.6
20190820150932 15 285 0.0 1.6 0.15 0.43 0.43 92 1024.4
20190820150430 15 285 0.0 1.6 0.15 0.41 0.41 92 1024.4
20190820145932 15 285 0.0 1.6 0.15 0.38 0.38 92 1024.3
20190820145430 15 285 0.0 1.6 0.18 0.38 0.38 93 1024.1
20190820144931 15 285 0.0 1.6 0.18 0.36 0.36 93 1024.0
20190820144429 15 285 0.0 0.0 0.20 0.33 0.33 94 1024.0
20190820143930 15 285 0.0 0.0 0.18 0.33 0.33 94 1024.0
20190820143430 15 285 0.0 0.0 0.18 0.30 0.30 94 1024.0